Location: Berg
(48.4333°N, 13.9167°E)
Time: 05:53:14
(UTC+00:00)

USA 234 - Pass Details

Date: 18 September 2020
Orbit: 1102 x 1106 km, 123.0° (Epoch: 16 October)

Event Time Altitude Azimuth Distance (km) Brightness Sun altitude
Rises 21:58:42 0° 65° (ENE) 3,924 6.2 -38.5°
Reaches altitude 10° 22:01:16 10° 59° (ENE) 2,966 5.6 -38.6°
Enters shadow 22:03:22 21° 50° (NE) 2,248 5.0 -38.8°
Exits shadow 22:06:55 45° 2° (N) 1,474 4.1 -38.9°
Maximum altitude 22:07:25 46° 349° (N) 1,458 4.1 -39.0°
Drops below altitude 10° 22:13:34 10° 280° (W) 2,965 5.7 -39.2°
Sets 22:16:09 0° 274° (W) 3,923 6.3 -39.3°
